Weather Roundup
Issued by NWS Springfield, MO

Home | Current Version | Previous Version | Text Only | Print | Product List | Glossary On
Versions: 1 2 3 4 5 6 7 8 9 10 11 12 13 14 15 16 17 18 19 20 21 22 23 24 25 26 27 28 29 30 31 32 33 34 35 36 37 38 39 40 41 42 43 44 45 46 47 48 49 50
000
NZUS99 KSGF 200359
HRRSGF

HOURLY WEATHER
NATIONAL WEATHER SERVICE SPRINGFIELD MO
1100 PM CDT FRI SEP 19 2014

......SGF CWA......

CITY           SKY/WX    TMP DP  RH WIND       PRES   REMARKS
SPRINGFIELD    PTCLDY    68  63  84 SE8       30.02R
JOPLIN         CLEAR     69  67  93 CALM      30.01R
WEST PLAINS    CLEAR     66  63  90 CALM      30.07R
ROLLA          CLEAR     66  61  84 S8        30.01S HAZE
OSAGE BEACH    CLEAR     64  61  88 CALM      30.01S

......SURROUNDING SGF CWA......

CITY           SKY/WX    TMP DP  RH WIND       PRES   REMARKS
CHANUTE        CLEAR     66  66 100 SE5       29.99R FOG
PARSONS        CLEAR     65  64  97 CALM      30.00R FOG
COFFEYVILLE    CLEAR     68  66  93 S3        29.98S FOG
EMPORIA        PTCLDY    68  67  96 S16       29.95S FOG
GROVE OK       CLEAR     70  70 100 CALM      30.02R FOG
SILOAM SPRINGS CLEAR     70  63  78 SE5       30.04S
HARRISON AR    CLEAR     66  66 100 SE3       30.05R
NEAR YELLVILLE CLEAR     68  63  83 CALM      30.03S

......KANSAS AND MISSOURI......

CITY           SKY/WX    TMP DP  RH WIND       PRES   REMARKS
KANSAS CTY INT CLEAR     69  67  93 S9        29.95S
DOWNTOWN KC    CLEAR     72  67  84 S7        29.95S
COLUMBIA       CLEAR     64  61  90 S7        30.01R
SEDALIA        CLEAR     68  63  84 S9        29.99S
ST JOSEPH      CLEAR     70  67  90 S8        29.93S
ST LOUIS       PTCLDY    71  58  63 S7        30.02S
SPIRIT OF STL  CLEAR     66  59  78 S5        30.00S
KIRKSVILLE     CLEAR     66  61  84 S6        29.97S
WICHITA        PTCLDY    73  68  84 S12       29.95S
TOPEKA         PTCLDY    72  69  90 S10       29.95R
OLATHE         CLEAR     68  66  93 S6        29.96S

......TENNESSEE......

CITY           SKY/WX    TMP DP  RH WIND       PRES   REMARKS
MEMPHIS        CLEAR     72  67  84 CALM      30.03S
NASHVILLE      PTCLDY    70  65  84 SE3       30.07R

......ARKANSAS.......

CITY           SKY/WX    TMP DP  RH WIND       PRES   REMARKS
FAYETTEVILLE   CLEAR     65  65 100 CALM      30.04R FOG
FT SMITH       CLEAR     74  68  81 E3        30.00R
LITTLE ROCK    CLEAR     74  67  78 CALM      30.02R

......OKLAHOMA.......

CITY           SKY/WX    TMP DP  RH WIND       PRES   REMARKS
TULSA          CLEAR     72  68  87 SE3       29.97S
PONCA CITY     CLEAR     74  69  85 SE12      29.96S
MCALESTER      CLEAR     72  69  90 SE5       29.99S
OKLAHOMA CITY  PTCLDY    74  66  76 SE9       29.98S

......IOWA............

CITY           SKY/WX    TMP DP  RH WIND       PRES   REMARKS
DES MOINES     PTCLDY    70  66  87 S16       29.83F
QUAD CITIES    CLEAR     67  55  65 S14       29.92S

......ILLINOIS........

CITY           SKY/WX    TMP DP  RH WIND       PRES   REMARKS
QUINCY         CLEAR     65  58  78 S8        29.98S
CHICAGO        PTCLDY    66  47  50 S14       29.95S



USA.gov is the U.S. government's official web portal to all federal, state and local government web resources and services.